Hourly Weather Otradne

Today, 30 July, Friday

Time Temperature Precipitation Wind Pressure Humidity
00:00 +25°C° 0 mm 3 mps 750 mmHg 76%
01:00 +25°C° 0 mm 2 mps 750 mmHg 77%
02:00 +25°C° 0 mm 2 mps 750 mmHg 78%
03:00 +24°C° 0 mm 2 mps 750 mmHg 76%
04:00 +24°C° 0 mm 2 mps 750 mmHg 74%
05:00 +24°C° 0 mm 3 mps 750 mmHg 72%
06:00 +25°C° 0 mm 3 mps 750 mmHg 68%
07:00 +27°C° 0 mm 3 mps 750 mmHg 63%
08:00 +28°C° 0 mm 3 mps 750 mmHg 59%
09:00 +30°C° 0 mm 3 mps 750 mmHg 54%
10:00 +31°C° 0 mm 3 mps 750 mmHg 50%
11:00 +33°C° 0 mm 3 mps 750 mmHg 46%
12:00 +34°C° 0 mm 4 mps 750 mmHg 43%
13:00 +35°C° 0 mm 4 mps 750 mmHg 40%
14:00 +35°C° 0 mm 4 mps 750 mmHg 37%
15:00 +34°C° 0 mm 5 mps 749 mmHg 40%
16:00 +33°C° 0 mm 5 mps 749 mmHg 43%
17:00 +32°C° 0 mm 6 mps 749 mmHg 46%
18:00 +30°C° 0 mm 5 mps 750 mmHg 50%
19:00 +29°C° 0 mm 4 mps 750 mmHg 54%
20:00 +27°C° 0 mm 3 mps 751 mmHg 58%
21:00 +26°C° 0 mm 3 mps 751 mmHg 59%
22:00 +26°C° 0 mm 3 mps 751 mmHg 60%
23:00 +25°C° 0 mm 2 mps 751 mmHg 61%

Tomorrow, 31 July, Saturday

Time Temperature Precipitation Wind Pressure Humidity
00:00 +25°C° 0 mm 2 mps 751 mmHg 61%
01:00 +24°C° 0 mm 2 mps 751 mmHg 62%
02:00 +24°C° 0 mm 2 mps 751 mmHg 62%
03:00 +24°C° 0 mm 2 mps 751 mmHg 62%
04:00 +22°C° 0 mm 3 mps 751 mmHg 62%
05:00 +22°C° 0 mm 3 mps 751 mmHg 62%
06:00 +25°C° 0 mm 3 mps 751 mmHg 56%
07:00 +27°C° 0 mm 3 mps 752 mmHg 50%
08:00 +29°C° 0 mm 3 mps 752 mmHg 43%
09:00 +30°C° 0 mm 3 mps 752 mmHg 40%
10:00 +33°C° 0 mm 3 mps 752 mmHg 37%
11:00 +34°C° 0 mm 3 mps 752 mmHg 33%
12:00 +34°C° 0 mm 3 mps 751 mmHg 32%
13:00 +35°C° 0 mm 3 mps 751 mmHg 30%
14:00 +35°C° 0 mm 2 mps 751 mmHg 29%
15:00 +35°C° 0 mm 2 mps 751 mmHg 29%
16:00 +35°C° 0 mm 2 mps 751 mmHg 29%
17:00 +35°C° 0 mm 2 mps 751 mmHg 29%
18:00 +34°C° 0 mm 2 mps 751 mmHg 32%
19:00 +31°C° 0 mm 2 mps 751 mmHg 36%
20:00 +29°C° 0 mm 2 mps 751 mmHg 39%
21:00 +28°C° 0 mm 2 mps 751 mmHg 42%
22:00 +28°C° 0 mm 2 mps 751 mmHg 45%
23:00 +27°C° 0 mm 1 mps 752 mmHg 48%

Day after tomorrow, 1 August, Sunday

Time Temperature Precipitation Wind Pressure Humidity
00:00 +26°C° 0 mm 1 mps 752 mmHg 50%
01:00 +26°C° 0 mm 1 mps 752 mmHg 52%
02:00 +24°C° 0 mm 0 mps 752 mmHg 54%
03:00 +25°C° 0 mm 1 mps 752 mmHg 55%
04:00 +25°C° 0 mm 1 mps 752 mmHg 56%
05:00 +25°C° 0 mm 1 mps 752 mmHg 57%
06:00 +27°C° 0 mm 1 mps 752 mmHg 52%
07:00 +29°C° 0 mm 1 mps 752 mmHg 46%
08:00 +31°C° 0 mm 1 mps 752 mmHg 41%
09:00 +32°C° 0 mm 1 mps 752 mmHg 37%
10:00 +34°C° 0 mm 1 mps 752 mmHg 33%
11:00 +35°C° 0 mm 1 mps 752 mmHg 28%
12:00 +35°C° 0 mm 1 mps 752 mmHg 27%
13:00 +36°C° 0 mm 1 mps 751 mmHg 26%
14:00 +37°C° 0 mm 1 mps 751 mmHg 25%
15:00 +36°C° 0 mm 1 mps 751 mmHg 25%
16:00 +36°C° 0 mm 1 mps 751 mmHg 25%
17:00 +36°C° 0 mm 1 mps 751 mmHg 25%
18:00 +35°C° 0 mm 2 mps 751 mmHg 31%
19:00 +32°C° 0 mm 2 mps 751 mmHg 36%
20:00 +30°C° 0 mm 3 mps 751 mmHg 42%
21:00 +29°C° 0 mm 2 mps 751 mmHg 44%
22:00 +28°C° 0 mm 2 mps 751 mmHg 46%
23:00 +27°C° 0 mm 2 mps 751 mmHg 48%

2 August, Monday

Time Temperature Precipitation Wind Pressure Humidity
00:00 +27°C° 0 mm 2 mps 751 mmHg 49%
01:00 +27°C° 0 mm 2 mps 751 mmHg 51%
02:00 +26°C° 0 mm 2 mps 751 mmHg 52%
03:00 +26°C° 0 mm 2 mps 751 mmHg 53%
04:00 +26°C° 0 mm 2 mps 751 mmHg 54%
05:00 +25°C° 0 mm 2 mps 751 mmHg 56%
06:00 +28°C° 0 mm 3 mps 751 mmHg 50%
07:00 +30°C° 0 mm 3 mps 751 mmHg 45%
08:00 +33°C° 0 mm 4 mps 751 mmHg 39%
09:00 +34°C° 0 mm 4 mps 751 mmHg 36%
10:00 +36°C° 0 mm 5 mps 751 mmHg 33%
11:00 +37°C° 0 mm 5 mps 751 mmHg 30%
12:00 +37°C° 0 mm 5 mps 751 mmHg 29%
13:00 +39°C° 0 mm 6 mps 750 mmHg 28%
14:00 +39°C° 0 mm 6 mps 750 mmHg 27%
15:00 +38°C° 0 mm 6 mps 750 mmHg 28%
16:00 +38°C° 0 mm 6 mps 750 mmHg 30%
17:00 +36°C° 0 mm 6 mps 750 mmHg 31%
18:00 +34°C° 0 mm 5 mps 750 mmHg 37%
19:00 +30°C° 0 mm 4 mps 750 mmHg 44%
20:00 +28°C° 0 mm 4 mps 750 mmHg 50%
21:00 +27°C° 0 mm 3 mps 750 mmHg 56%
22:00 +26°C° 0 mm 3 mps 751 mmHg 62%
23:00 +25°C° 0 mm 2 mps 751 mmHg 68%

3 August, Tuesday

Time Temperature Precipitation Wind Pressure Humidity
00:00 +25°C° 0 mm 2 mps 751 mmHg 69%
01:00 +25°C° 0 mm 2 mps 751 mmHg 71%
02:00 +24°C° 0 mm 2 mps 751 mmHg 72%
03:00 +24°C° 0 mm 2 mps 752 mmHg 74%
04:00 +23°C° 0 mm 2 mps 752 mmHg 77%
05:00 +22°C° 0 mm 3 mps 752 mmHg 79%
06:00 +24°C° 0 mm 3 mps 752 mmHg 73%
07:00 +25°C° 0 mm 4 mps 753 mmHg 68%
08:00 +26°C° 0 mm 5 mps 753 mmHg 63%
09:00 +28°C° 0 mm 4 mps 753 mmHg 56%
10:00 +29°C° 0 mm 4 mps 753 mmHg 49%
11:00 +30°C° 0 mm 4 mps 753 mmHg 42%
12:00 +32°C° 0 mm 4 mps 753 mmHg 38%
13:00 +33°C° 0 mm 5 mps 753 mmHg 34%
14:00 +33°C° 0 mm 5 mps 753 mmHg 31%
15:00 +33°C° 0 mm 5 mps 753 mmHg 31%
16:00 +32°C° 0 mm 4 mps 753 mmHg 31%
17:00 +32°C° 0 mm 4 mps 753 mmHg 31%
18:00 +29°C° 0 mm 4 mps 753 mmHg 36%
19:00 +27°C° 0 mm 4 mps 754 mmHg 41%
20:00 +25°C° 0 mm 3 mps 754 mmHg 46%
21:00 +25°C° 0 mm 3 mps 754 mmHg 48%
22:00 +24°C° 0 mm 3 mps 754 mmHg 50%
23:00 +22°C° 0 mm 3 mps 755 mmHg 52%

4 August, Wednesday

Time Temperature Precipitation Wind Pressure Humidity
00:00 +22°C° 0 mm 3 mps 755 mmHg 53%
01:00 +22°C° 0 mm 3 mps 755 mmHg 54%
02:00 +21°C° 0 mm 3 mps 755 mmHg 56%
03:00 +21°C° 0 mm 3 mps 755 mmHg 57%
04:00 +20°C° 0 mm 2 mps 755 mmHg 58%
05:00 +20°C° 0 mm 2 mps 755 mmHg 59%
06:00 +23°C° 0 mm 2 mps 755 mmHg 54%
07:00 +25°C° 0 mm 3 mps 755 mmHg 48%
08:00 +27°C° 0 mm 3 mps 756 mmHg 43%
09:00 +28°C° 0 mm 2 mps 756 mmHg 39%
10:00 +29°C° 0 mm 2 mps 755 mmHg 36%
11:00 +31°C° 0 mm 2 mps 755 mmHg 32%
12:00 +31°C° 0 mm 2 mps 755 mmHg 31%
13:00 +32°C° 0 mm 1 mps 755 mmHg 29%
14:00 +33°C° 0 mm 1 mps 754 mmHg 27%
15:00 +33°C° 0 mm 1 mps 754 mmHg 27%
16:00 +33°C° 0 mm 1 mps 754 mmHg 27%
17:00 +33°C° 0 mm 1 mps 754 mmHg 26%
18:00 +31°C° 0 mm 2 mps 754 mmHg 30%
19:00 +29°C° 0 mm 2 mps 754 mmHg 34%
20:00 +28°C° 0 mm 3 mps 754 mmHg 38%
21:00 +27°C° 0 mm 2 mps 754 mmHg 41%
22:00 +26°C° 0 mm 2 mps 754 mmHg 44%
23:00 +25°C° 0 mm 2 mps 754 mmHg 47%
Show more